Aeroporto :
LOGIN :

Iscrizione | Disclaimer

   EN    FR    IT 

 










Sommario :    VFR   VFR Marginale   IFR   IFR Intensivo   IFR Molto Intensivo
Visibilità : 
Base nubi : 
>= 8 km
>= 3000ft
5 / 8 km
1000 / 3000 ft
1500m / 5 km
500 / 1000 ft
800 / 1500m
200 / 500 ft
< 800m
< 200 ft
Simboli :   Temporali  Nebbia  Neve Forte  Precipitazioni Forti  Vento > 20 kt
SIGMETs :   Varie  Temporali  Ghiacco  Turbolenza  Onda orograficha  Ceneri Vulcaniche






- Altitudine del aeroporto : 1234 ft
- Codice IATA : LUX


ELLX - Luxembourg Findel

ULTIMO METAR :
  • 100450Z 06009KT CAVOK 24/14 Q1015 NOSIG

METARs OBSOLETI :
  • 100420Z 04008KT CAVOK 23/14 Q1015 NOSIG
  • 100350Z 05007KT CAVOK 24/14 Q1015 NOSIG
  • 100320Z AUTO 05006KT 9999 NCD 23/14 Q1015 NOSIG
  • 100250Z 08004KT CAVOK 22/15 Q1015 NOSIG
  • 100220Z AUTO 08006KT 9999 NCD 22/15 Q1016 NOSIG

TAF TAF ELLX
Valido dal 10 a 00 ore il 11 a 06 ore UTC


092300Z 1000/1106 04010KT CAVOK
BECMG 1007/1010 10010KT
PROB30
TEMPO 1014/1020 -TSRA SCT060CB
ATIS : +352 4798 27300
Met : +352 4798 27010 / 27050



MetMap, La meteo Aeronautica in un colpo d'occhio ! - Copyright ORBIFLY Dicembre 2007 - Disclaimer

ORBIFLY MET'MAP TEAM :

Programmazione e sviluppo : Alexandra Zaïnal
Concezione : Baudouin d'Aumeries
Aiuto per la programmazione : Marc-Olivier Méhu
Supporto tecnico e logistico : Manuel Goepfert
Aiuto per la traduzione : Arnaldo La Scala

Contatto : metmap@orbifly.com




FONTI E CREDITI :

   NOAA